Home   Weather   Bimbo   Past weeks

Flag for Central African Republic Past Weather in Bimbo, Central African Republic — Yesterday and Last 2 Weeks

72 °F

Passing clouds.

Feels Like: 65 °F
Forecast: 73 / 96 °F
Wind: 3 mph from North

Location: Bangui Airport

Current Time: Oct 24, 2016 at 4:35:56 AM

Latest Report: Oct 24, 2016 at 3:00 AM

Visibility: 5 mi

Pressure: 29.83 "Hg

Humidity: 100%

Dew Point: 72 °F

Location of BimboLocation

Past Weather in Bimbo — Graph


Bimbo Temperature Yesterday

Maximum temperature yesterday: 95 °F (at 1:00 PM)
Minimum temperature yesterday: 72 °F (at 2:00 PM)
Average temperature yesterday: 77 °F

High & Low Weather Summary for the Past Weeks

High95 °F (Oct 13, 2:00 PM)100% (Oct 9, 3:00 AM)29.95 "Hg (Oct 9, 3:00 AM)
Low68 °F (Oct 17, 4:00 AM)49% (Oct 14, 2:00 PM)29.74 "Hg (Oct 14, 4:00 PM)
Average78 °F85%29.86 "Hg
* Reported Oct 9 3:00 AM — Oct 24 3:00 AM, Bimbo, Weather by CustomWeather, © 2016

Note: Actual official high and low records may vary slightly from our data, if they occured in-between our weather recording intervals... More about our weather records


Bimbo Weather History for the Previous 24 Hours

Scroll right to see more
Time TempWeatherWind HumidityBarometerVisibility
3:00 AM
Mon, Oct 24
72 °FPassing clouds.3 mph100%29.83 "Hg5 mi
2:00 AM72 °FLight rain. Passing clouds.3 mph100%29.86 "Hg5 mi
1:00 AM72 °FPassing clouds.3 mph100%29.86 "Hg5 mi
12:00 AM72 °FPassing clouds.2 mph100%29.86 "Hg5 mi
11:00 PM
Sun, Oct 23
72 °FPassing clouds.3 mph100%29.86 "HgN/A
10:00 PM72 °FPassing clouds.5 mph100%29.86 "HgN/A
9:00 PM72 °FPassing clouds.2 mph100%29.86 "HgN/A
7:00 PM72 °FThunderstorms. Passing clouds.6 mph100%29.86 "HgN/A
6:00 PM73 °FThunderstorms. Passing clouds.2 mph94%29.83 "HgN/A
5:00 PM73 °FThunderstorms. Passing clouds.6 mph100%29.80 "HgN/A
4:00 PM73 °FThunderstorms. Passing clouds.No wind94%29.77 "HgN/A
3:00 PM72 °FThunderstorms. Scattered clouds.6 mph100%29.77 "Hg5 mi
2:00 PM72 °FThunderstorms. Partly sunny.7 mph94%29.80 "Hg2 mi
1:00 PM95 °FScattered clouds.5 mph53%29.80 "HgN/A
12:00 PM93 °FPassing clouds.2 mph56%29.83 "HgN/A
11:00 AM90 °FPassing clouds.3 mph67%29.89 "Hg4 mi
10:00 AM84 °FFog.No wind79%29.92 "Hg2 mi
9:00 AM79 °FFog.No wind89%29.92 "Hg2 mi
8:00 AM77 °FPassing clouds.No wind94%29.92 "Hg4 mi
7:00 AM75 °FPassing clouds.No wind94%29.89 "Hg5 mi
6:00 AM73 °FPassing clouds.5 mph100%29.89 "Hg5 mi
5:00 AM73 °FPassing clouds.3 mph100%29.89 "Hg5 mi
4:00 AM73 °FClear.3 mph100%29.86 "Hg5 mi
Weather by CustomWeather, © 2016

See weather overviewHow to use our weather pages